GFSFLT2_850_thetae_057.txt.gz
Theta_e
308 308 309 309 305 305 305 300 302 300 299 298 298 298 298 297 294 290 290 291 290 291 292 293 294 294 295
307 306 302 306 303 302 300 301 299 299 298 297 296 293 291 290 290 289 289 288 290 291 292 292 293 294 294
303 303 303 302 301 300 301 298 298 297 295 292 289 289 288 287 287 288 289 290 290 290 290 290 291 291 292
301 301 301 300 299 297 297 295 292 289 288 288 287 287 286 286 287 288 288 288 288 289 289 290 290 290 291
299 298 297 296 295 291 290 289 288 288 287 286 285 286 287 288 288 288 288 288 289 289 289 289 290 291 291
294 291 289 289 289 288 288 288 287 286 285 285 286 288 288 288 288 289 289 289 288 289 289 289 289 290 290
287 287 287 287 287 287 287 287 286 284 284 287 288 288 288 289 289 289 289 289 288 288 288 288 288 289 289
285 285 285 285 285 285 285 284 283 284 285 287 288 289 289 289 290 289 288 288 288 288 288 288 288 288 289
285 284 284 283 283 283 283 282 284 286 286 286 287 288 289 290 289 289 288 288 288 288 287 287 287 286 287
284 283 283 283 283 284 285 285 285 285 286 286 286 287 289 290 289 289 288 288 288 288 288 287 287 287 287
282 283 283 284 285 285 285 285 285 285 285 285 286 286 285 287 290 289 288 288 288 288 287 286 286 286 285
282 283 284 284 285 285 285 286 286 286 286 285 285 286 285 285 286 288 288 288 288 288 287 286 286 286 285
284 284 285 285 286 286 286 287 287 286 286 286 286 286 285 285 285 287 287 289 288 287 287 286 286 286 286
285 285 285 286 286 286 287 287 287 287 287 286 286 285 284 284 283 287 287 285 288 287 286 286 286 286 286
285 285 285 286 286 286 286 286 286 287 287 287 286 285 283 283 283 286 287 287 287 286 286 286 286 286 286
285 285 285 285 286 286 285 285 285 286 286 286 286 285 284 284 285 286 286 286 286 286 285 285 286 286 286
285 285 285 285 285 285 285 285 285 285 285 285 284 282 281 282 285 285 284 285 285 285 286 286 286 286 286

GFSFLT2_850_thetae_063.txt.gz
Theta_e
311 311 310 309 307 302 303 301 302 300 300 300 300 299 299 299 298 298 298 298 298 297 296 296 296 296 296
308 308 307 305 304 303 300 300 298 299 299 299 298 298 297 297 297 297 297 296 295 295 293 292 293 294 295
305 304 304 302 301 300 300 299 299 298 298 298 298 297 296 295 294 294 294 294 291 290 291 291 291 292 293
303 302 303 302 300 299 299 298 298 298 297 297 297 296 294 293 292 289 288 287 287 287 288 289 290 290 291
300 300 300 299 298 297 297 296 295 294 293 291 290 289 288 287 287 286 286 286 287 288 288 289 291 292 292
297 297 297 296 295 293 292 290 289 288 287 287 287 286 286 286 286 286 287 288 288 289 289 289 289 290 291
287 287 288 288 288 288 287 287 286 286 286 286 285 285 285 286 287 288 288 288 288 288 289 289 289 289 289
285 285 285 285 285 285 285 285 285 285 284 284 285 287 287 288 288 288 288 288 288 288 288 288 288 289 289
285 285 284 284 284 283 284 283 282 283 284 285 287 288 288 288 289 289 289 289 288 289 288 288 288 289 289
283 283 283 282 282 283 282 283 284 285 286 286 287 287 288 289 289 288 288 288 288 288 287 287 288 289 289
282 282 282 282 282 283 284 284 285 285 285 285 285 286 286 287 288 288 288 288 288 288 287 288 288 288 288
282 282 282 284 284 284 285 285 285 286 286 285 285 285 284 286 287 288 288 288 288 288 288 288 287 287 287
282 284 284 284 285 285 285 286 286 286 286 286 285 284 282 284 286 287 287 289 288 289 288 288 287 287 288
284 284 284 284 285 285 286 286 286 286 285 285 284 284 283 283 283 287 287 286 288 287 288 288 288 287 287
283 284 284 285 285 285 285 285 285 286 286 285 284 284 284 284 284 286 287 287 287 287 287 287 287 288 288
283 284 284 284 285 285 284 284 284 285 285 285 285 284 284 286 285 286 286 286 286 286 286 285 287 288 287
281 282 283 284 284 284 284 284 284 284 285 285 285 284 283 283 285 285 284 285 285 285 285 285 285 287 286

GFSFLT2_850_thetae_066.txt.gz
Theta_e
310 309 308 308 308 308 307 307 304 302 305 303 301 301 302 301 300 300 299 299 300 300 300 299 298 298 298
308 308 308 307 307 305 304 305 302 302 301 301 300 300 300 299 298 298 298 298 298 298 298 298 297 296 295
306 306 305 304 304 304 303 303 302 300 300 299 299 298 298 297 297 297 296 296 297 297 297 294 291 292 293
302 302 301 301 301 300 300 299 299 299 299 299 298 298 297 297 297 296 296 295 293 290 288 287 288 289 291
300 299 299 298 297 297 297 297 296 296 295 295 294 293 291 291 290 289 288 287 287 286 287 288 288 290 291
294 294 292 292 291 291 290 289 289 289 289 288 287 287 286 286 286 286 285 286 286 287 288 289 291 291 291
287 286 286 286 286 286 286 286 286 285 285 286 285 285 285 285 285 286 287 287 288 288 288 289 289 289 290
285 285 285 285 285 285 285 285 284 284 283 283 284 285 286 287 288 288 288 288 288 288 288 289 289 288 288
284 284 284 284 284 283 283 283 283 283 284 285 286 287 288 288 288 288 288 289 289 289 288 288 288 288 288
283 283 283 282 282 283 283 283 284 286 286 286 286 287 288 288 288 288 288 288 288 288 288 288 288 288 288
282 282 282 282 282 283 284 285 285 285 285 285 286 286 286 287 288 287 287 288 288 288 288 288 288 288 288
282 282 282 283 284 284 285 285 285 286 286 285 285 286 285 286 287 288 288 287 287 288 288 287 288 288 288
282 283 284 284 284 285 285 285 286 286 286 286 285 285 285 285 286 288 287 289 288 288 288 288 288 288 288
283 284 284 284 285 285 285 286 286 286 285 284 284 284 285 285 285 287 287 286 288 287 287 288 288 288 288
281 282 283 284 285 285 285 285 285 286 286 285 284 283 284 285 285 286 287 287 287 287 286 286 288 288 288
281 281 282 283 284 284 284 284 284 285 285 285 284 283 284 285 285 285 286 286 286 285 285 285 285 287 286
281 281 280 281 281 281 281 282 282 282 283 283 283 283 283 283 285 285 285 285 285 285 285 285 285 286 286

GFSFLT2_850_thetae_069.txt.gz
Theta_e
309 308 307 307 307 308 307 306 306 304 304 305 305 305 306 306 305 304 303 302 302 301 301 301 302 301 301
307 306 306 306 306 306 306 305 304 303 303 305 305 303 302 303 303 303 302 301 300 299 299 299 300 300 299
306 305 304 304 304 304 304 304 303 302 302 302 301 301 300 300 300 299 299 298 298 298 298 298 298 298 297
303 302 302 301 300 300 300 301 301 301 301 300 300 300 299 298 298 298 298 297 297 297 297 296 292 289 289
300 299 299 298 297 296 296 296 297 297 298 298 298 297 296 296 296 296 295 294 293 291 289 287 287 287 288
289 288 288 288 288 288 288 288 288 288 288 289 288 288 288 288 288 287 287 287 286 286 286 286 287 289 292
286 286 286 286 286 286 286 286 286 286 286 286 286 285 286 286 286 286 285 285 286 286 287 288 290 290 290
285 285 285 285 285 285 284 284 284 284 284 284 284 285 286 287 287 287 287 288 288 288 288 288 289 289 289
284 284 284 284 284 284 283 283 283 283 285 285 286 287 287 288 288 288 288 288 288 288 288 289 289 289 289
283 283 283 283 283 283 283 283 284 285 285 285 286 286 287 287 287 287 288 288 288 288 288 288 288 288 289
283 283 283 283 283 283 284 285 285 285 285 285 286 286 286 286 288 287 287 287 287 288 288 288 288 288 288
283 283 283 283 285 285 285 285 285 286 286 286 286 285 285 285 287 288 288 287 287 287 287 287 288 288 288
283 283 284 284 285 285 285 286 286 286 286 286 285 285 285 285 286 287 288 288 288 288 287 287 287 287 288
282 282 283 283 285 285 285 286 286 286 285 284 284 284 285 285 286 287 287 286 287 287 287 288 288 288 288
282 282 282 282 283 284 285 285 285 286 285 284 283 284 285 285 285 286 286 286 286 287 286 287 287 288 288
281 281 281 281 281 281 282 282 283 284 284 283 282 282 283 285 285 285 285 286 286 286 285 286 287 287 287
282 281 281 281 280 281 281 281 281 282 282 282 282 282 282 283 285 284 285 285 285 285 285 285 286 287 287